Location: Marshall
(39.8477°N, 87.1868°W)
Time: 02:57:32
(UTC+00:00)

BlueWalker 3 - Pass Details

Date: 08 May 2026
Orbit: 447 x 456 km, 53.2° (Epoch: 9 June)

Event Time Altitude Azimuth Distance (km) Brightness Sun altitude
Exits shadow 10:06:47 - 287° (WNW) 2,385 5.0 -6.7°
Reaches altitude 10° 10:09:44 10° 316° (NW) 1,574 4.3 -6.2°
Maximum altitude 10:11:25 13° 344° (NNW) 1,410 4.4 -5.9°
Drops below altitude 10° 10:13:06 10° 13° (NNE) 1,578 5.1 -5.6°
Sets 10:16:15 0° 43° (NE) 2,454 7.1 -5.1°
